Regional Weather Roundup
Issued by NWS

Home | Current Version | Previous Version | Text Only | Print | Product List | Glossary Off
Versions: 1 2 3 4 5 6 7 8 9 10 11 12 13 14 15 16 17 18 19 20 21 22 23 24 25 26 27 28 29 30 31 32 33 34 35 36 37 38 39 40 41 42 43 44 45 46 47 48 49 50

000
ASUS43 KDTX 281010
RWRMI
MICHIGAN HOURLY REGIONAL WEATHER ROUNDUP
NATIONAL WEATHER SERVICE DETROIT/PONTIAC MI
600 AM EDT MON JUL 28 2014

NOTE: "FAIR" INDICATES FEW OR NO CLOUDS BELOW 12,000 FEET WITH NO
SIGNIFICANT WEATHER AND/OR OBSTRUCTION TO VISIBILITY.

MIZ047>049-052>055-059>063-066>070-074>076-081>083-281100-
SOUTHEAST LOWER MICHIGAN

CITY           SKY/WX    TMP DP  RH WIND       PRES   REMARKS
ADRIAN         CLOUDY    63  59  87 N15       29.80R
ALMA           CLEAR     58  56  91 N7        29.86R
ANN ARBOR      LGT RAIN  62  58  86 N7        29.79R
BAD AXE        CLOUDY    59  54  83 N15G24    29.81R
CARO           MOCLDY    61  58  91 N12       29.81R
DETROIT CITY   LGT RAIN  65  58  78 N14G23    29.74R
DETROIT        CLOUDY    63  58  83 N14       29.75R
FLINT          MOCLDY    62  56  80 N14       29.81R
GROSSE ILE     CLOUDY    64  61  88 N12G22    29.73R
HILLSDALE      CLOUDY    63  61  91 N9        29.83R
HOWELL         CLOUDY    59  58  95 N8        29.81R

CITY           SKY/WX    TMP DP  RH WIND       PRES   REMARKS
JACKSON        CLOUDY    62  57  83 VRB6      29.83R
LAMBERTVILLE   CLOUDY    63  59  88 NW8       29.78R
LANSING        CLOUDY    60  57  89 N7        29.85R
LAPEER         CLOUDY    60  56  88 N14       29.79R
MASON          CLOUDY    61  57  89 N10       29.83R
MONROE         CLOUDY    63  61  94 NW8       29.74R
MT. CLEMENS    CLOUDY    63  57  82 N18G28    29.74R
PONTIAC        CLOUDY    64  59  82 N15       29.77
PORT HOPE        N/A     61  54  77 N20G37    29.79R
PORT HURON     DRIZZLE   61  59  94 N10G21    29.73R
TRI CITIES     PTCLDY    60  55  83 N13       29.84R
TROY           CLOUDY    62  58  86 N12G17    29.77R
SAGINAW HB     MOCLDY    61  59  94 N10G21    29.82R
$$
MIZ043>046-050>051-056>058-064>065-071>073-077>080-281100-
SOUTHWEST LOWER MICHIGAN

CITY           SKY/WX    TMP DP  RH WIND       PRES   REMARKS
BATTLE CREEK   PTCLDY    62  57  83 N9        29.86R
BENTON HARBOR  PTCLDY    59  55  87 NW8       29.90R
BIG RAPIDS     CLEAR     55  55 100 N5        29.89R
COLDWATER      CLOUDY    64  60  85 N12G17    29.84R
FREMONT        FAIR      55  54  95 N10       29.90R
HOLLAND        CLEAR     59  54  83 NW8       29.90R
GRAND RAPIDS   PTCLDY    59  56  89 N8        29.88R
IONIA          FAIR      58  56  93 N6        29.86R
KALAMAZOO      CLOUDY    62  57  83 N17       29.87R
LUDINGTON      MOCLDY    55  52  90 N10G18    29.94R
MARSHALL       CLOUDY    62  58  87 N6        29.85R
MOUNT PLEASANT PTCLDY    57  55  91 N5        29.86R
MUSKEGON       PTCLDY    58  52  80 N10       29.91R
SOUTH HAVEN    CLEAR     57  56  95 N8        29.90R
$$
MIZ016>042-281100-
NORTHERN LOWER MICHIGAN

CITY           SKY/WX    TMP DP  RH WIND       PRES   REMARKS
ALPENA         CLOUDY    57  50  77 N14       29.88R
BEAVER ISLAND  CLEAR     51  48  90 N7        29.97R
BELLAIRE       MOCLDY    56  53  90 N5        29.92R
CADILLAC       CLEAR     54  54  99 N6        29.91R
CHARLEVOIX     CLOUDY    58  53  84 N14       29.96R
FRANKFORT      MOCLDY    56  50  79 N7        29.94R
GAYLORD        CLOUDY    54  49  83 VRB6      29.91R
GRAYLING       PTCLDY    56  53  91 N7        29.90R
HARBOR SPRINGS MOCLDY    54  50  86 N7        29.93R
HOUGHTON LAKE  PTCLDY    55  52  89 N12       29.89R
MANISTEE       MOCLDY    55  48  76 N10G17    29.94R
OSCODA         MOCLDY    60  51  74 N15       29.84R
PELLSTON       CLOUDY    55  49  80 N12       29.94R
ROGERS CITY    CLOUDY    57  51  79 N8        29.91R
TRAVERSE CITY  CLOUDY    57  51  80 NW9       29.92R
$$
MIZ007>008-015-281100-
EASTERN UPPER MICHIGAN

CITY           SKY/WX    TMP DP  RH WIND       PRES   REMARKS
KINROSS        CLEAR     46  45  93 NW6       29.95R
MACKINAC ISLAN CLEAR     51  47  85 N12G17    29.94R
NEWBERRY       CLEAR     43  41  90 NW6       29.98R
S. S. MARIE    CLEAR     50  40  68 N7        29.95R
MUNISING         N/A     52  44  74 NW12      30.02R
$$
MIZ004>006-011>014-085-281100-
CENTRAL UPPER MICHIGAN

CITY           SKY/WX    TMP DP  RH WIND       PRES   REMARKS
MANISTIQUE     CLEAR     45  41  88 N9        29.99R
ESCANABA       CLEAR     46  41  81 NW7       30.02R
MENOMINEE      CLEAR     48  43  81 N9        30.02R
SAWYER-GWINN   CLEAR     43  40  89 CALM      30.05R
$$
MIZ001>003-009>011-084-281100-
WESTERN UPPER MICHIGAN

CITY           SKY/WX    TMP DP  RH WIND       PRES   REMARKS
IRON MOUNTAIN  CLEAR     46  44  93 CALM      30.05R
COPPER HARBOR    N/A     53  47  79 SW5       30.05S
IRONWOOD       CLOUDY    50  48  93 SW3       30.10R
$$

ABBREVIATIONS USED IN REMARKS
   TC - TEMPERATURE IN CELSIUS
  WCI - WIND CHILL INDEX
   HX - HEAT INDEX
  VSB - VISIBILITY




USA.gov is the U.S. government's official web portal to all federal, state and local government web resources and services.